Regional Weather Roundup
Issued by NWS

Home | Current Version | Previous Version | Graphics & Text | Print | Product List | Glossary On
Versions: 1 2 3 4 5 6 7 8 9 10 11 12 13 14 15 16 17 18 19 20 21 22 23 24 25 26 27
000
ASUS45 KSLC 091810
RWRUT

UTAH REGIONAL WEATHER ROUNDUP
NATIONAL WEATHER SERVICE SALT LAKE CITY UT
1100 AM MST FRI DEC 09 2016

UTZ001>011-023>025-091900-

NORTHERN UTAH

CITY           SKY/WX    TMP DP  RH WIND       PRES   REMARKS
BRIGHAM CITY     N/A     33  27  77 NW3       30.22F
HILL AFB       PTSUNNY   36  32  87 SE7       30.21F WCI  30
LOGAN          CLOUDY    33  28  81 N7        30.20R WCI  27
OGDEN          CLOUDY    35  31  85 E9        30.21S FOG     WCI  28
SALT LAKE CITY CLOUDY    34  28  79 NE5       30.22R WCI  30
WENDOVER       CLOUDY    27  19  74 CALM      30.23S
HEBER CITY     MIX PCPN  32  32 100 CALM      30.23S

$$

UTZ011>015-024>027-091900-

CENTRAL/NORTHEAST UTAH

CITY           SKY/WX    TMP DP  RH WIND       PRES   REMARKS
PROVO AIRPORT  CLOUDY    37  31  78 CALM      30.26S
MOAB/CANYONLAN MOSUNNY   33   8  35 CALM      30.34F
DELTA          CLOUDY    41  23  48 S9        30.25S
PRICE          PTSUNNY   30  12  47 CALM      30.32R
RICHFIELD      CLOUDY    39  23  52 E1        30.27F
ROOSEVELT      CLOUDY    27  18  69 CALM      30.34S
VERNAL         CLOUDY    27  14  58 VRB3      30.30S

$$

UTZ013>016-019>022-027-091900-

SOUTHERN UTAH

CITY           SKY/WX    TMP DP  RH WIND       PRES   REMARKS
BRYCE CANYON   MOSUNNY   35  24  64 S3        30.31S
CEDAR CITY     CLOUDY    44  24  45 SW12      30.27F
MILFORD        CLOUDY    44  21  40 SW23      30.25S
ST GEORGE      CLOUDY    37  19  48 S3        30.37S
HANKSVILLE     PTSUNNY   30  10  43 CALM      30.39F
KANAB          PTSUNNY   41  25  52 CALM      30.37
BLANDING       MOSUNNY   36  19  50 CALM      30.42F

$$

REGIONAL REPORTS     COLORADO/ARIZONA

CITY           SKY/WX    TMP DP  RH WIND       PRES   REMARKS
CRAIG, CO      CLOUDY    34  24  67 NE5       30.24S WCI  30
GRAND JUNCTION CLOUDY    30  15  53 CALM      30.35S
RIFLE, CO      CLOUDY    30  17  58 SE3       30.34R
MONTROSE, CO   CLOUDY    33  18  53 NW3       30.34R
CORTEZ, CO     CLOUDY    42  23  46 VRB3      30.34F
COLORADO CITY    N/A     45  32  61 CALM      30.35S
PAGE, AZ       PTSUNNY   41  10  28 N5        30.34S
GRAND CANYON   CLOUDY    40  35  83 SW3       30.34R
KINGMAN, AZ    CLOUDY    53  23  31 CALM      30.30S
FLAGSTAFF, AZ  PTSUNNY   43  33  68 SW5       30.34S

$$

REGIONAL REPORTS    NEVADA/IDAHO/WYOMING

CITY           SKY/WX    TMP DP  RH WIND       PRES   REMARKS
LAS VEGAS, NV  CLOUDY    52  10  18 E3        30.31S
ELY, NY        CLOUDY    34  16  47 SE8       30.28R WCI  27
ELKO, NV       LGT RAIN  36  32  85 NE3       30.21S
POCATELLO, ID  LGT SNOW  24  20  84 N3        30.18S FOG
FORT BRIDGER,  MOCLDY    37  35  90 W23       30.20S WCI  26
EVANSTON, WY   LGT SNOW  33  30  88 SW15      30.19S FOG     WCI  23
ROCK SPRINGS,  CLOUDY    33  28  81 W26       30.14S WCI  20
KEMMERER, WY   LGT SNOW  34  30  86 W9        30.17S WCI  26

$$




USA.gov is the U.S. government's official web portal to all federal, state and local government web resources and services.